Weather in Odessa

United States     31°51′38″N   102°26′26″W
temp.,
°C
wind,
m/s
gust,
m/s
humid.,
%
clouds,
%
prec.,
mm/h
press.,
hPa
HPBL,
m
23 may, mon
mon2301:00+17e4554100 0.0 101771
04:00+18ene226998 0.4 101542
07:00+17se3788100 2.6 1014166
10:00+19se5986100 5.4 1014929
13:00+22sse8107597 6.3 10121020
16:00+27sse88454 0.8 10071692
19:00+19s131869100 3.4 1006470
22:00+19ese81477100 0.3 1007458
24 may, tue
tue2401:00+18se9128958 0.3 1006452
04:00+17s71280100 0.0 1005392
07:00+16sse699137 0.0 1005341
10:00+20nnw45681 0.0 1005613
13:00+26wnw6939100 0.0 10041685
16:00+31sw7121558 0.0 10004621
19:00+29nw141615100 0.0 9992616
22:00+20ne91343100 0.0 1005491
25 may, wed
wed2501:00+17ne81053100 0.0 1009610
04:00+15nne7846100 0.0 1010549
07:00+13nnw6105368 0.0 1013539
10:00+17n78390 0.0 1014908
13:00+21n45260 0.0 10131661
16:00+25nw47190 0.0 10102470
19:00+26wnw27161 0.0 10093088
22:00+22s33224 0.0 101026
26 may, thu
thu2601:00+20ese45294 0.0 101251
04:00+17e57385 0.0 101297
07:00+16ese46410 0.0 101477
10:00+23sse56330 0.0 1014461
13:00+28sse33210 0.0 10131169
16:00+31ese22160 0.0 10112249
19:00+31ene43150 0.0 10091925
22:00+25e610290 0.0 1012146
27 may, fri
fri2701:00+23se613320 0.0 1013202
04:00+22sse59380 0.0 1012127
07:00+20se510500 0.0 1013158
10:00+25sse811420 0.0 1013584
13:00+32s99270 0.0 10101122
16:00+36s66160 0.0 10072295
19:00+36sse87142 0.0 10042537
22:00+30sse714275 0.0 1006252